Weather History for Homestead AFB, FL

Change the Weather History Date:

Tuesday, January 29, 2013

  Actual Average Record
Temperature  
Mean Temperature 74 °F -  
Max Temperature 78 °F 73 °F 86 °F (1937)
Min Temperature 71 °F 50 °F 30 °F (1940)
Cooling Degree Days 10    
Growing Degree Days 24 (Base 50)    
Moisture  
Dew Point 65 °F    
Average Humidity 73    
Maximum Humidity 79    
Minimum Humidity 65    
Precipitation  
Precipitation 0.00 in - - ()
Sea Level Pressure  
Sea Level Pressure 30.19 in    
Wind  
Wind Speed 9 mph (ESE)    
Max Wind Speed 17 mph    
Max Gust Speed 22 mph    
Visibility 10 miles    
Events      
Averages and records for this station are not official NWS values.
T = Trace of Precipitation, MM = Missing Value Source: NWS Daily Summary

Daily Weather History Graph

Daily Weather History Graph

Search for Another Location

Airport:

Trip Planner

Search our weather history database for the weather conditions in past years. The results will help you decide how hot, cold, wet, or windy it might be!

Date:

Astronomy

Jan. 29, 2013 Rise Set
Actual Time 7:06 AM EST 6:03 PM EST
Civil Twilight 6:41 AM EST 6:27 PM EST
Nautical Twilight 6:14 AM EST 6:55 PM EST
Astronomical Twilight 5:47 AM EST 7:22 PM EST
Moon 8:34 PM EST (1/29) 8:22 AM EST (1/29)
Length of Visible Light 11h 45m
Length of Day
10h 57m
Waning Gibbous, 94% of the Moon is Illuminated
Jan 29
Waning Gibbous
Feb 3
Last Quarter
Feb 10
New
Feb 17
First Quarter
Feb 25
Full

Hourly Weather History & Observations

Time (EST) Temp. Dew Point Humidity Pressure Visibility Wind Dir Wind Speed Gust Speed Precip Events Conditions
12:55 AM 72.7 °F 65.7 °F 79% 30.24 in 10.0 mi East 6.9 mph - N/A   Clear
1:55 AM 72.7 °F 65.5 °F 78% 30.22 in 10.0 mi ESE 6.9 mph - N/A   Clear
2:55 AM 71.8 °F 64.8 °F 78% 30.20 in 10.0 mi ESE 6.9 mph - N/A   Clear
3:55 AM 72.1 °F 64.4 °F 77% 30.20 in 10.0 mi East 8.1 mph - N/A   Clear
4:55 AM 71.4 °F 64.6 °F 79% 30.19 in 10.0 mi ESE 6.9 mph - N/A   Clear
5:55 AM 71.8 °F 64.9 °F 79% 30.20 in 10.0 mi ESE 6.9 mph - N/A   Clear
6:55 AM 72.0 °F 64.8 °F 78% 30.22 in 10.0 mi East 8.1 mph - N/A   Clear
7:55 AM 72.9 °F 65.3 °F 77% 30.23 in 10.0 mi East 6.9 mph - N/A   Clear
8:55 AM 75.2 °F 66.6 °F 74% 30.24 in 10.0 mi ESE 9.2 mph - N/A   Clear
9:55 AM 76.5 °F 67.1 °F 73% 30.24 in 10.0 mi ESE 12.7 mph - N/A   Clear
10:55 AM 76.8 °F 67.5 °F 73% 30.24 in 10.0 mi ESE 11.5 mph 17.3 mph N/A   Clear
11:55 AM 77.7 °F 67.6 °F 71% 30.22 in 10.0 mi East 17.3 mph 21.9 mph N/A   Partly Cloudy
12:55 PM 77.7 °F 67.8 °F 71% 30.20 in 10.0 mi East 12.7 mph 21.9 mph N/A   Scattered Clouds
1:55 PM 76.6 °F 67.5 °F 73% 30.17 in 10.0 mi ESE 13.8 mph - N/A   Clear
2:55 PM 78.3 °F 67.1 °F 68% 30.15 in 10.0 mi ESE 16.1 mph 21.9 mph N/A   Partly Cloudy
3:55 PM 77.7 °F 66.6 °F 68% 30.14 in 10.0 mi ESE 12.7 mph - N/A   Partly Cloudy
4:55 PM 76.1 °F 66.2 °F 71% 30.14 in 10.0 mi ESE 9.2 mph 17.3 mph N/A   Clear
5:55 PM 74.8 °F 65.5 °F 73% 30.16 in 10.0 mi East 6.9 mph - N/A   Clear
6:55 PM 72.3 °F 63.5 °F 74% 30.17 in 10.0 mi East 5.8 mph - N/A   Clear
7:55 PM 72.1 °F 64.0 °F 76% 30.17 in 10.0 mi East 5.8 mph - N/A   Clear
8:55 PM 72.1 °F 61.9 °F 70% 30.16 in 10.0 mi East 6.9 mph - N/A   Clear
9:55 PM 72.1 °F 59.9 °F 65% 30.16 in 10.0 mi East 8.1 mph - N/A   Clear
10:55 PM 72.1 °F 60.8 °F 67% 30.16 in 10.0 mi East 9.2 mph - N/A   Clear
11:55 PM 71.8 °F 60.4 °F 67% 30.14 in 10.0 mi ESE 6.9 mph - N/A   Clear